This is the latest recevied weather packets stored in our database for station/object KC4LZN. If no packets are shown the sender has not sent any weather packets the latest 10 day(s).
| Time | Temp. | Humidity | Pressure | Rain* | Wind** | Luminosity | Snow |
|---|---|---|---|---|---|---|---|
| 1777908662 | 25.56° C | 41% | 1018.7 hPa | 0 mm | - | 778 W/m² | - |
| 1777908358 | 25° C | 42% | 1018.5 hPa | 0 mm | - | 770 W/m² | - |
| 1777908055 | 25° C | 44% | 1018.6 hPa | 0 mm | - | 760 W/m² | - |
| 1777907750 | 25° C | 43% | 1018.6 hPa | 0 mm | - | 749 W/m² | - |
| 1777907445 | 25° C | 44% | 1018.7 hPa | 0 mm | - | 738 W/m² | - |
| 1777907143 | 25° C | 45% | 1018.8 hPa | 0 mm | - | 730 W/m² | - |
| 1777906840 | 25° C | 45% | 1018.9 hPa | 0 mm | - | 718 W/m² | - |
| 1777906537 | 24.44° C | 44% | 1018.7 hPa | 0 mm | - | 709 W/m² | - |
| 1777906232 | 24.44° C | 45% | 1018.9 hPa | 0 mm | - | 695 W/m² | - |
| 1777905929 | 24.44° C | 46% | 1018.8 hPa | 0 mm | - | 681 W/m² | - |
| 1777905626 | 24.44° C | 48% | 1018.8 hPa | 0 mm | - | 669 W/m² | - |
| 1777905323 | 25° C | 48% | 1018.9 hPa | 0 mm | - | 655 W/m² | - |
| 1777905021 | 24.44° C | 46% | 1018.8 hPa | 0 mm | - | 642 W/m² | - |
| 1777904718 | 23.89° C | 47% | 1018.8 hPa | 0 mm | - | 629 W/m² | - |
| 1777904415 | 23.89° C | 48% | 1018.8 hPa | 0 mm | - | 583 W/m² | - |
| 1777904111 | 23.89° C | 48% | 1018.7 hPa | 0 mm | - | 574 W/m² | - |
| 1777903808 | 23.89° C | 48% | 1018.8 hPa | 0 mm | - | 583 W/m² | - |
| 1777903505 | 23.33° C | 49% | 1018.6 hPa | 0 mm | - | 509 W/m² | - |
| 1777903201 | 23.33° C | 50% | 1018.5 hPa | 0 mm | - | 366 W/m² | - |
| 1777902897 | 23.33° C | 51% | 1018.3 hPa | 0 mm | - | 537 W/m² | - |
| 1777902594 | 23.33° C | 51% | 1018.6 hPa | 0 mm | - | 520 W/m² | - |
| 1777902292 | 23.33° C | 54% | 1018.3 hPa | 0 mm | - | 503 W/m² | - |
| 1777901989 | 23.33° C | 59% | 1018.3 hPa | 0 mm | - | 484 W/m² | - |
| 1777901687 | 23.33° C | 60% | 1018.3 hPa | 0 mm | - | 465 W/m² | - |
| 1777901384 | 22.78° C | 63% | 1018.4 hPa | 0 mm | - | 448 W/m² | - |
* Rain latest hour (hover to see other rain measurements)
** Current wind speed in m/s (hover to see current wind gust speed)